星链-11503 (STARLINK-11503)

导读

STARLINK-11503是美国太空探索技术公司Starlink卫星互联网项目的卫星,于2025年3月3日发射升空,归属发射国家美国。它属于Starlink星座组网卫星,旨在为全球提供低延迟、高速率的卫星互联网接入服务,推进全球卫星互联网覆盖网络的搭建,增强星座的服务能力与覆盖范围。

基本信息
目录编号:
63142
目录名称:
STARLINK-11503
国际标识:
2025-043L
轨道中心:
EARTH
卫星名称:
星链-11503
卫星全名:
星链-11503 (STARLINK-11503)
卫星状态:
在轨 (已飞行468 天)
发射日期:
2025-03-03 UTC
国别 :
美国 (US)
星等 :
--
轨道信息
数据来源 国际轨道数据
星历时间: 2026-06-14T15:35:28+0800
11小时前
查看轨道信息
半长轴: 6734.221km
偏心率: 0.0006317
轨道倾角: 43.001°
近地点辐角 262.427°
升交点赤经 27.866°
平近点角 97.588°
近地点: 351.829km
远地点: 360.339km
周期: 91.662分钟
每日圈数: 15.70984
详细信息
固有亮度:
5
最大亮度:
2.5
卫星平台:
Starlink V1.0
覆盖范围:
全球
运营商:
太空探索技术公司
运营商所在国:
美国
制造商(研发单位):
太空探索技术公司
制造商所在国:
美国
使用方式:
暂无
卫星简介
Starlink 计划是 SpaceX 推出的全球卫星互联网项目,通过发射低轨道卫星,为全球尤其是偏远地区提供高速、低延迟的互联网服务。自 2019 年起,Starlink 已部署数千颗卫星,旨在缩小全球数字鸿沟,推动互联网普及。该项目还为军事、航空等行业提供通信支持,带来广泛经济效益。
2D轨道图
3D轨道图
轨道高度分析图
轨道倾角分析图
轨道综合分析图
查看轨道综合分析图